ISS (ZARYA) 1 25544U 98067A 10040.38873190 .00019275 00000-0 12567-3 0 5505 2 25544 51.6454 166.8195 0010777 303.5541 109.5214 15.75852402643347 PSSC 1 33445U 08059B 10040.24335539 .00473655 13786-3 32039-3 0 5466 2 33445 51.6240 128.1165 0006113 359.9461 0.2135 16.16116586 69233 SOYUZ-TMA 16 1 35940U 09053A 10038.54923199 .00017998 00000-0 11804-3 0 983 2 35940 51.6452 176.2902 0010708 295.7161 114.9449 15.75775743 20555 PROGRESS-M 03M 1 35948U 09056A 10038.54923199 .00017998 00000-0 11804-3 0 1277 2 35948 51.6452 176.2902 0010708 295.7161 114.9449 15.75775743 18235 SOYUZ-TMA 17 1 36129U 09074A 10038.54923199 .00017998 00000-0 11804-3 0 458 2 36129 51.6452 176.2902 0010708 295.7161 114.9449 15.75775743 7684 PROGRESS-M 04M 1 36361U 10003A 10038.54923199 .00017998 00000-0 11804-3 0 157 2 36361 51.6452 176.2902 0010708 295.7161 114.9449 15.75775743643059 STS 130 1 36394U 10004A 10039.84075985 .00250945 11407-4 24908-3 0 55 2 36394 51.6476 169.7428 0095208 16.4142 120.3757 16.01634618 62